Flag for U.S.A. Weather past 2 weeks in Fairbanks, Alaska, U.S.A.

30 °F

Light snow. Ice fog.

Feels Like: 30 °F
Forecast: 21 / 28 °F
Wind: 2 mph from North

Location: Wainwright U. S. Army Airfield

Current Time: Nov 24, 2015 at 3:56:15 PM

Latest Report: Nov 24, 2015 at 2:58 PM

Visibility: 1 mi

Pressure: 29.94 "Hg

Humidity: 97%

Dew point: 29 °F

Location of FairbanksLocation

Historic Weather in Fairbanks — Graph


Fairbanks temperature yesterday

Maximum temperature yesterday: 26 °F (at 11:58 PM)
Minimum temperature yesterday: 4 °F (at 2:58 AM)
Average temperature yesterday: 12 °F

Past Weeks' High & Low Weather Summary

High30 °F (Nov 24, 11:55 AM)100% (Nov 9, 5:58 PM)30.30 "Hg (Nov 9, 5:58 PM)
Low-24 °F (Nov 19, 4:58 AM)75% (Nov 15, 4:58 AM)29.13 "Hg (Nov 12, 7:03 AM)
Average1 °F85%29.75 "Hg
* Reported Nov 9 1:55 PM — Nov 24 1:55 PM, Fairbanks, Weather by CustomWeather, © 2015

Note: Actual official high and low records may vary slightly from our data, if they occured in-between our weather recording intervals... More about our weather records


Fairbanks weather history for previous 24 hours

Time TempWeatherWind HumidityBarometerVisibility
1:55 PM
Tue, Nov 24
30 °FLight snow. Ice fog.3 mph96%29.95 "Hg1 mi
12:55 PM30 °FLight snow. Ice fog.3 mph93%29.95 "Hg1 mi
11:55 AM30 °FLight snow. Ice fog.3 mph95%29.95 "Hg2 mi
10:55 AM30 °FLight snow. Ice fog.6 mph93%29.93 "Hg4 mi
9:55 AM29 °FLight snow. Ice fog.5 mph97%29.93 "Hg5 mi
8:55 AM28 °FLight snow. Ice fog.6 mph97%29.93 "Hg3 mi
7:55 AM28 °FLow clouds.6 mph96%29.93 "Hg10 mi
6:58 AM27 °FLow clouds.7 mph97%29.93 "Hg10 mi
5:58 AM27 °FLight snow. Ice fog.5 mph97%29.92 "Hg4 mi
4:58 AM27 °FLight snow. Ice fog.2 mph97%29.91 "Hg2 mi
3:58 AM26 °FLight snow. Ice fog.1 mph97%29.89 "Hg3 mi
2:58 AM26 °FLight snow. Ice fog.3 mph94%29.87 "Hg6 mi
2:03 AM27 °FLight snow. Mostly cloudy.7 mph93%29.81 "Hg9 mi
1:03 AM27 °FLight snow. Ice fog.5 mph93%29.80 "Hg2 mi
12:58 AM26 °FLight snow. Ice fog.2 mph93%29.84 "Hg3 mi
11:58 PM
Mon, Nov 23
26 °FMostly cloudy.6 mph93%29.81 "Hg10 mi
10:58 PM25 °FLight snow. Ice fog.13 mph94%29.79 "Hg3 mi
9:58 PM24 °FLight snow. Ice fog.13 mph94%29.81 "Hg3 mi
8:58 PM22 °FLight snow. Ice fog.10 mph94%29.83 "Hg1 mi
7:58 PM22 °FLight snow. Ice fog.10 mph89%29.86 "Hg1 mi
6:58 PM21 °FOvercast.6 mph81%29.86 "Hg10 mi
6:04 PM19 °FLight snow. Overcast.10 mph79%29.84 "Hg8 mi
5:58 PM19 °FOvercast.9 mph80%29.89 "Hg10 mi
4:58 PM18 °FMostly cloudy.9 mph80%29.93 "Hg10 mi
3:58 PM16 °FMostly cloudy.10 mph82%29.97 "Hg10 mi
Weather by CustomWeather, © 2015

See weather overviewHow to use our weather pages